DW4238 Weather Reports


time (UTC)temp
C
wind
direction
speed
KPH
gust
KPH
rain 1hr
cm
rain 24hr
cm
rain mn
cm
humidity
%
barometer
mb
20260903033127 26 167 12.9 17.7 0.05 3.05 3.05 93 1013.2
20260903032541 26 188 12.9 17.7 0.03 3.02 3.02 93 1013.2
20260903032132 26 185 9.7 17.7 0.03 3.02 3.02 92 1013.2
20260903031551 26 171 11.3 17.7 0.03 3.02 3.02 92 1013.1
20260903031102 26 157 11.3 17.7 0.03 3.02 3.02 92 1013.3
20260903030042 26 139 8.0 16.1 0.03 3.02 3.02 91 1013.4
20260903025552 26 137 9.7 16.1 0.03 3.02 3.02 91 1013.3
20260903024614 26 142 8.0 12.9 0.05 3.00 3.00 90 1013.0
20260903024106 26 134 6.4 14.5 0.38 3.00 3.00 89 1012.8
20260903023125 26 90 4.8 8.0 1.65 3.00 3.00 87 1013.0
20260903022627 27 223 0.0 4.8 2.21 3.00 3.00 86 1012.8
20260903022122 27 224 0.0 1.6 2.90 3.00 3.00 86 1012.7
20260903021549 27 223 0.0 1.6 3.00 3.00 3.00 85 1012.7
20260903021054 27 223 0.0 6.4 3.00 3.00 3.00 85 1012.5
20260903020123 26 223 3.2 14.5 3.00 3.00 3.00 88 1012.4
20260903015605 26 209 6.4 19.3 3.00 3.00 3.00 88 1012.1
20260903014627 26 113 8.0 19.3 3.00 3.00 3.00 87 1011.8
20260903014043 26 91 12.9 19.3 2.77 2.77 2.77 86 1012.0
20260903013100 28 135 3.2 16.1 1.93 1.93 1.93 79 1011.9
20260903012547 29 318 0.0 19.3 1.35 1.35 1.35 75 1011.7
20260903011608 31 337 0.0 14.5 0.10 0.10 0.10 68 1011.1
20260903011120 31 77 4.8 17.7 0.00 0.00 0.00 67 1010.7
20260903010122 31 71 16.1 27.4 0.00 0.00 0.00 65 1010.4
20260903005634 32 66 17.7 27.4 0.00 0.00 0.00 62 1010.1
20260903005113 33 67 11.3 22.5 0.00 0.00 0.00 57 1010.0
20260903004545 35 78 11.3 19.3 0.00 0.00 0.00 55 1009.9
20260903004049 35 188 1.6 11.3 0.00 0.00 0.00 53 1009.8
20260903003119 35 191 6.4 14.5 0.00 0.00 0.00 53 1009.6
20260903002624 35 198 8.0 16.1 0.00 0.00 0.00 53 1009.7
20260903001624 35 194 12.9 14.5 0.00 0.00 0.00 52 1009.6
20260903001036 35 150 9.7 14.5 0.00 0.00 0.00 51 1009.5
20260903000058 36 160 6.4 12.9 0.00 0.00 0.00 48 1009.5
20260902235613 36 200 3.2 8.0 0.00 0.00 0.00 48 1009.6
20260902235108 36 200 4.8 8.0 0.00 0.00 0.00 48 1009.6
20260902234540 36 211 3.2 6.4 0.00 0.00 0.00 47 1009.7
20260902234051 36 213 3.2 8.0 0.00 0.00 0.00 47 1009.7
20260902233113 36 217 1.6 8.0 0.00 0.00 0.00 48 1009.6
20260902232556 36 121 1.6 16.1 0.00 0.00 0.00 48 1009.6
20260902231621 36 200 3.2 12.9 0.00 0.00 0.00 47 1009.7
20260902231044 36 167 3.2 8.0 0.00 0.00 0.00 48 1009.7
20260902230114 36 115 4.8 9.7 0.00 0.00 0.00 48 1009.7
20260902225604 36 124 1.6 9.7 0.00 0.00 0.00 49 1009.8
20260902224625 36 96 3.2 9.7 0.00 0.00 0.00 49 1009.7
20260902224137 36 61 3.2 9.7 0.00 0.00 0.00 48 1009.7
20260902223118 36 347 3.2 8.0 0.00 0.00 0.00 48 1009.8
20260902222630 36 333 3.2 11.3 0.00 0.00 0.00 48 1009.8
20260902222132 36 333 4.8 12.9 0.00 0.00 0.00 48 1009.8
20260902221558 36 207 8.0 17.7 0.00 0.00 0.00 47 1009.6
20260902221103 36 224 6.4 20.9 0.00 0.00 0.00 47 1009.6
20260902220135 36 189 9.7 16.1 0.00 0.00 0.00 47 1009.6
20260902215538 36 202 11.3 16.1 0.00 0.00 0.00 47 1009.8
20260902214557 37 248 11.3 17.7 0.00 0.00 0.00 47 1009.8
20260902214047 37 202 8.0 16.1 0.00 0.00 0.00 47 1009.8
20260902213109 37 229 11.3 24.1 0.00 0.00 0.00 47 1009.9
20260902212620 37 211 12.9 24.1 0.00 0.00 0.00 47 1009.9
20260902212124 37 208 14.5 24.1 0.00 0.00 0.00 47 1010.0
20260902211555 36 201 11.3 17.7 0.00 0.00 0.00 48 1010.1
20260902211107 36 239 11.3 20.9 0.00 0.00 0.00 49 1010.1
20260902210107 36 177 6.4 16.1 0.00 0.00 0.00 48 1010.2
20260902205549 37 209 6.4 12.9 0.00 0.00 0.00 48 1010.2
20260902204612 36 198 9.7 16.1 0.00 0.00 0.00 49 1010.4
20260902204055 36 242 8.0 14.5 0.00 0.00 0.00 48 1010.5
20260902203057 36 263 4.8 14.5 0.00 0.00 0.00 50 1010.5
20260902202612 36 209 9.7 14.5 0.00 0.00 0.00 50 1010.6
20260902201634 36 229 6.4 16.1 0.00 0.00 0.00 50 1010.7
20260902201045 36 275 8.0 17.7 0.00 0.00 0.00 51 1010.7
20260902200108 36 226 4.8 14.5 0.00 0.00 0.00 51 1010.9
20260902195612 36 220 9.7 12.9 0.00 0.00 0.00 51 1011.0
20260902194621 36 207 8.0 20.9 0.00 0.00 0.00 50 1011.2
20260902194104 36 277 12.9 20.9 0.00 0.00 0.00 49 1011.3
20260902193616 36 296 8.0 20.9 0.00 0.00 0.00 50 1011.3
20260902193047 36 232 9.7 20.9 0.00 0.00 0.00 51 1011.5
20260902192649 36 236 9.7 24.1 0.00 0.00 0.00 51 1011.5
20260902191630 36 225 11.3 24.1 0.00 0.00 0.00 53 1011.7
20260902191041 35 243 8.0 19.3 0.00 0.00 0.00 53 1011.8
20260902190104 35 259 9.7 17.7 0.00 0.00 0.00 53 1011.9
20260902185547 35 275 9.7 20.9 0.00 0.00 0.00 54 1012.0
20260902184620 35 273 11.3 22.5 0.00 0.00 0.00 54 1012.2
20260902184124 35 276 12.9 22.5 0.00 0.00 0.00 54 1012.4
20260902183633 35 267 8.0 17.7 0.00 0.00 0.00 55 1012.4
20260902183100 35 240 9.7 24.1 0.00 0.00 0.00 55 1012.5
20260902182605 35 239 16.1 24.1 0.00 0.00 0.00 54 1012.6
20260902181626 34 232 1.6 14.5 0.00 0.00 0.00 58 1012.7
20260902181036 34 329 6.4 20.9 0.00 0.00 0.00 58 1012.8
20260902180648 34 289 11.3 20.9 0.00 0.00 0.00 55 1012.9
20260902180051 34 251 8.0 19.3 0.00 0.00 0.00 58 1013.1
20260902175603 34 273 8.0 19.3 0.00 0.00 0.00 60 1013.1
20260902175153 34 249 8.0 16.1 0.00 0.00 0.00 58 1013.3
20260902174555 34 240 4.8 19.3 0.00 0.00 0.00 60 1013.4
20260902174106 33 281 6.4 20.9 0.00 0.00 0.00 59 1013.5
20260902173606 33 274 12.9 20.9 0.00 0.00 0.00 59 1013.5
20260902173037 33 219 9.7 20.9 0.00 0.00 0.00 59 1013.7
20260902172550 33 195 12.9 20.9 0.00 0.00 0.00 60 1013.8
20260902172157 33 216 4.8 22.5 0.00 0.00 0.00 62 1013.8
20260902171603 33 281 9.7 24.1 0.00 0.00 0.00 62 1013.9
20260902171112 33 221 14.5 25.7 0.00 0.00 0.00 62 1014.0
20260902170554 33 264 17.7 25.7 0.00 0.00 0.00 61 1014.1
20260902170040 33 251 11.3 22.5 0.00 0.00 0.00 62 1014.1
20260902165546 33 270 14.5 22.5 0.00 0.00 0.00 62 1014.2
20260902165147 33 246 12.9 20.9 0.00 0.00 0.00 63 1014.2
20260902164558 32 223 14.5 25.7 0.00 0.00 0.00 64 1014.3
20260902164110 32 276 11.3 25.7 0.00 0.00 0.00 64 1014.2
20260902163611 32 225 11.3 22.5 0.00 0.00 0.00 63 1014.4
20260902163042 32 244 9.7 19.3 0.00 0.00 0.00 66 1014.4
20260902162554 32 263 11.3 20.9 0.00 0.00 0.00 66 1014.5
20260902161615 32 269 16.1 24.1 0.00 0.00 0.00 66 1014.5
20260902161121 31 275 14.5 19.3 0.00 0.00 0.00 68 1014.5
20260902160632 31 297 14.5 24.1 0.00 0.00 0.00 68 1014.6
20260902160043 31 286 14.5 24.1 0.00 0.00 0.00 68 1014.6
20260902155544 31 254 14.5 24.1 0.00 0.00 0.00 68 1014.5
20260902154612 31 260 14.5 22.5 0.00 0.00 0.00 70 1014.5
20260902154114 30 265 12.9 20.9 0.00 0.00 0.00 73 1014.6
20260902153626 30 240 12.9 20.9 0.00 0.00 0.00 74 1014.5
20260902153046 30 256 11.3 22.5 0.00 0.00 0.00 75 1014.6
20260902152558 30 260 12.9 22.5 0.00 0.00 0.00 76 1014.5
20260902151619 29 248 11.3 19.3 0.00 0.00 0.00 77 1014.6
20260902151130 29 275 11.3 19.3 0.00 0.00 0.00 79 1014.6
20260902150634 29 250 9.7 19.3 0.00 0.00 0.00 81 1014.6
20260902145652 28 261 8.0 14.5 0.00 0.00 0.00 83 1014.5
20260902145136 28 290 4.8 14.5 0.00 0.00 0.00 84 1014.5
20260902144604 28 263 4.8 12.9 0.00 0.00 0.00 85 1014.5
20260902144116 27 297 6.4 12.9 0.00 0.00 0.00 85 1014.5
20260902143622 27 280 8.0 12.9 0.00 0.00 0.00 85 1014.6
20260902143049 27 279 6.4 12.9 0.00 0.00 0.00 86 1014.5
20260902142558 27 302 6.4 19.3 0.00 0.00 0.00 86 1014.6
20260902141600 27 286 8.0 14.5 0.00 0.00 0.00 86 1014.6
20260902141112 27 264 8.0 16.1 0.00 0.00 0.00 86 1014.7
20260902140136 27 281 9.7 16.1 0.00 0.00 0.00 86 1014.7
20260902135627 27 250 9.7 14.5 0.00 0.00 0.00 86 1014.7
20260902135109 27 281 9.7 19.3 0.00 0.00 0.00 87 1014.6
20260902134537 27 266 8.0 19.3 0.00 0.00 0.00 87 1014.6
20260902134150 26 242 8.0 14.5 0.00 0.00 0.00 87 1014.6
20260902133632 26 270 6.4 12.9 0.00 0.00 0.00 87 1014.6
20260902133103 26 271 6.4 12.9 0.00 0.00 0.00 87 1014.5
20260902132554 26 265 4.8 12.9 0.00 0.00 0.00 87 1014.5
20260902132135 26 271 4.8 14.5 0.00 0.00 0.00 87 1014.4
20260902131605 26 270 8.0 14.5 0.00 0.00 0.00 87 1014.3
20260902131118 26 250 6.4 12.9 0.00 0.00 0.00 87 1014.3
20260902130623 26 273 4.8 11.3 0.00 0.00 0.00 87 1014.2
20260902130050 26 264 6.4 11.3 0.00 0.00 0.00 87 1014.0
20260902125555 26 270 3.2 8.0 0.00 0.00 0.00 87 1014.0
20260902124603 26 268 6.4 9.7 0.00 0.00 0.00 87 1013.8
20260902124108 26 280 3.2 6.4 0.00 0.00 0.00 87 1013.7
20260902123119 26 271 0.0 0.0 0.00 0.00 0.00 87 1013.5
20260902122623 26 271 0.0 1.6 0.00 0.00 0.00 87 1013.5
20260902122134 26 274 0.0 0.0 0.00 0.00 0.00 87 1013.4
20260902121555 26 269 0.0 0.0 0.00 0.00 0.00 87 1013.3
20260902121107 26 271 0.0 0.0 0.00 0.00 0.00 87 1013.3
20260902120607 26 271 0.0 0.0 0.00 0.00 0.00 87 1013.4
20260902120038 26 271 0.0 0.0 0.00 0.00 0.00 87 1013.4
20260902115629 26 271 0.0 0.0 0.00 0.00 0.00 86 1013.4
20260902115133 26 271 0.0 0.0 0.00 0.00 0.00 86 1013.4
20260902114559 26 271 0.0 0.0 0.00 0.00 0.00 86 1013.3
20260902114054 26 271 0.0 0.0 0.00 0.00 0.00 86 1013.3
20260902113115 26 271 0.0 0.0 0.00 0.00 0.00 86 1013.3
20260902112628 26 273 0.0 0.0 0.00 0.00 0.00 86 1013.2
20260902112106 26 274 0.0 0.0 0.00 0.00 0.00 86 1013.3
20260902111538 26 277 0.0 0.0 0.00 0.00 0.00 85 1013.4
20260902111131 26 278 0.0 0.0 0.00 0.00 0.00 85 1013.4
20260902110634 26 278 0.0 0.0 0.00 0.00 0.00 85 1013.3
20260902110040 26 278 0.0 0.0 0.00 0.00 0.00 85 1013.4
20260902105544 26 278 0.0 0.0 0.00 0.00 0.00 84 1013.4
20260902105157 26 278 0.0 0.0 0.00 0.00 0.00 84 1013.4
20260902104604 26 278 0.0 0.0 0.00 0.00 0.00 84 1013.4
20260902104108 26 278 0.0 0.0 0.00 0.00 0.00 84 1013.4
20260902103624 26 278 0.0 0.0 0.00 0.00 0.00 84 1013.4
20260902102546 26 278 0.0 0.0 0.00 0.00 0.00 84 1013.3
20260902102059 26 278 0.0 4.8 0.00 0.00 0.00 84 1013.3
20260902101543 26 279 0.0 4.8 0.00 0.00 0.00 84 1013.4
20260902101055 26 279 0.0 0.0 0.00 0.00 0.00 84 1013.4
20260902100117 26 277 0.0 4.8 0.00 0.00 0.00 83 1013.3
20260902095629 26 279 3.2 6.4 0.00 0.00 0.00 83 1013.4
20260902095113 26 279 4.8 8.0 0.00 0.00 0.00 83 1013.2
20260902094544 27 281 4.8 8.0 0.00 0.00 0.00 83 1013.1
20260902094055 27 271 3.2 9.7 0.00 0.00 0.00 83 1013.2
20260902093600 27 269 3.2 6.4 0.00 0.00 0.00 83 1013.1
20260902093151 27 263 3.2 6.4 0.00 0.00 0.00 83 1013.1
20260902092643 27 261 1.6 9.7 0.00 0.00 0.00 82 1013.1
20260902091639 27 259 3.2 6.4 0.00 0.00 0.00 82 1013.0
20260902091123 27 254 1.6 6.4 0.00 0.00 0.00 82 1013.1
20260902090635 27 246 1.6 6.4 0.00 0.00 0.00 82 1013.0
20260902085545 27 242 1.6 4.8 0.00 0.00 0.00 81 1013.1
20260902084612 27 240 3.2 6.4 0.00 0.00 0.00 81 1013.0
20260902084124 27 238 3.2 8.0 0.00 0.00 0.00 81 1012.9
20260902083102 27 232 3.2 8.0 0.00 0.00 0.00 81 1012.9
20260902082611 27 240 4.8 8.0 0.00 0.00 0.00 81 1012.9
20260902082109 27 235 3.2 8.0 0.00 0.00 0.00 81 1013.0
20260902081540 27 236 3.2 6.4 0.00 0.00 0.00 81 1013.1
20260902081044 27 236 3.2 6.4 0.00 0.00 0.00 81 1013.0
20260902080636 27 236 1.6 6.4 0.00 0.00 0.00 81 1013.0
20260902075547 27 231 3.2 6.4 0.00 0.00 0.00 80 1013.2
20260902074614 27 230 4.8 6.4 0.00 0.00 0.00 79 1013.2
20260902074104 27 229 4.8 8.0 0.00 0.00 0.00 78 1013.2
20260902073103 27 226 3.2 6.4 0.00 0.00 0.00 77 1013.4
20260902072608 27 225 0.0 0.0 0.00 0.00 0.00 77 1013.4
20260902071630 27 207 0.0 0.0 0.00 0.00 0.00 78 1013.5
20260902071135 27 204 0.0 4.8 0.00 0.00 0.00 78 1013.6
20260902070626 27 202 1.6 4.8 0.00 0.00 0.00 78 1013.5
20260902070052 27 200 1.6 4.8 0.00 0.00 0.00 78 1013.6
20260902065540 27 197 0.0 4.8 0.00 0.00 0.00 79 1013.6
20260902065050 27 196 1.6 4.8 0.00 0.00 0.00 79 1013.7
20260902064542 26 145 0.0 1.6 0.00 0.00 0.00 79 1013.6
20260902064052 26 144 0.0 0.0 0.00 0.00 0.00 79 1013.6
20260902063603 26 143 0.0 3.2 0.00 0.00 0.00 79 1013.6
20260902063057 26 142 0.0 3.2 0.00 0.00 0.00 79 1013.6
20260902062547 27 142 1.6 1.6 0.00 0.00 0.00 79 1013.5
20260902062058 27 142 0.0 0.0 0.00 0.00 0.00 78 1013.5
20260902061552 26 142 0.0 0.0 0.00 0.00 0.00 79 1013.6
20260902061123 26 142 0.0 0.0 0.00 0.00 0.00 79 1013.7
20260902060538 26 142 0.0 0.0 0.00 0.00 0.00 79 1013.7
20260902055613 26 142 0.0 0.0 0.00 0.00 0.00 79 1013.6
20260902055102 26 142 0.0 0.0 0.00 0.00 0.00 79 1013.7
20260902054603 26 142 0.0 0.0 0.00 0.00 0.00 79 1013.7
20260902054046 26 142 0.0 0.0 0.00 0.00 0.00 79 1013.7
20260902053555 26 142 0.0 0.0 0.00 0.00 0.00 79 1013.6
20260902053047 26 142 0.0 0.0 0.00 0.00 0.00 79 1013.7
20260902052604 26 142 0.0 0.0 0.00 0.00 0.00 79 1013.7
20260902052047 26 142 0.0 0.0 0.00 0.00 0.00 79 1013.6
20260902051607 27 141 0.0 0.0 0.00 0.00 0.00 79 1013.6
20260902051056 27 141 0.0 3.2 0.00 0.00 0.00 79 1013.5
20260902050546 27 141 1.6 3.2 0.00 0.00 0.00 79 1013.5
20260902050040 27 141 0.0 3.2 0.00 0.00 0.00 79 1013.6
20260902045650 27 141 0.0 0.0 0.00 0.00 0.00 78 1013.7
20260902045114 27 141 0.0 1.6 0.00 0.00 0.00 78 1013.6
20260902044539 27 141 0.0 1.6 0.00 0.00 0.00 78 1013.7
20260902044050 27 141 0.0 1.6 0.00 0.00 0.00 78 1013.7
20260902043116 27 141 0.0 4.8 0.00 0.00 0.00 78 1013.7
20260902042627 27 141 1.6 4.8 0.00 0.00 0.00 77 1013.7
20260902042131 27 141 1.6 4.8 0.00 0.00 0.00 77 1013.7
20260902041558 27 141 1.6 4.8 0.00 0.00 0.00 77 1013.7
20260902041111 27 140 0.0 4.8 0.00 0.00 0.00 76 1013.8
20260902040134 27 140 1.6 3.2 0.00 0.00 0.00 76 1013.7
20260902035624 27 140 0.0 3.2 0.00 0.00 0.00 75 1013.7
20260902035129 27 140 0.0 3.2 0.00 0.00 0.00 75 1013.8
20260902034600 27 141 0.0 0.0 0.00 0.00 0.00 75 1013.7
20260902034105 27 141 0.0 4.8 0.00 0.00 0.00 75 1013.6